Regional Weather Roundup
Issued by NWS

Home | Current Version | Previous Version | Graphics & Text | Print | Product List | Glossary On
Versions: 1 2 3 4 5 6 7 8 9 10 11 12 13 14 15 16 17 18 19 20 21 22 23 24 25 26 27 28 29 30 31 32 33 34 35 36 37 38 39 40 41 42 43 44 45 46 47 48 49 50
000
ASUS43 KDTX 301010
RWRMI
MICHIGAN HOURLY REGIONAL WEATHER ROUNDUP
NATIONAL WEATHER SERVICE DETROIT/PONTIAC MI
600 AM EDT MON MAR 30 2015

NOTE: "FAIR" INDICATES FEW OR NO CLOUDS BELOW 12,000 FEET WITH NO
SIGNIFICANT WEATHER AND/OR OBSTRUCTION TO VISIBILITY.

MIZ047>049-052>055-059>063-066>070-074>076-081>083-301100-
SOUTHEAST LOWER MICHIGAN

CITY           SKY/WX    TMP DP  RH WIND       PRES   REMARKS
ADRIAN         CLEAR     37  29  72 W9        29.88R
ALMA           CLEAR     36  32  85 W10       29.82R
ANN ARBOR      PTCLDY    38  31  76 W13       29.84R
BAD AXE        CLEAR     35  31  85 W15G21    29.72R
DETROIT CITY   MOCLDY    42  30  62 W15G22    29.81R
DETROIT        MOCLDY    41  31  67 W17       29.83R
FLINT          CLOUDY    39  31  72 W16       29.81R
GROSSE ILE     PTCLDY    39  32  75 W9        29.82R
HILLSDALE      CLEAR     36  30  77 W10       29.86S
HOWELL         MOCLDY    38  31  77 W14G20    29.82R

CITY           SKY/WX    TMP DP  RH WIND       PRES   REMARKS
JACKSON        CLEAR     36  29  75 W13       29.85R
LAMBERTVILLE   CLEAR     39  32  75 W8G17     29.87R
LANSING        CLEAR     35  29  78 W12       29.85R
LAPEER         NOT AVBL
MASON          PTCLDY    35  29  80 W8        29.85R
MONROE         PTCLDY    37  30  75 W10       29.84R
MT. CLEMENS    CLOUDY    40  31  70 W13       29.76R
PONTIAC        MOCLDY    38  30  73 W23G30    29.79R
PORT HOPE        N/A     36  30  79 W12G21    29.68R
PORT HURON     CLOUDY    37  32  81 W8        29.77R
TRI CITIES     MOCLDY    39  29  67 W13       29.79R
YPSILANTI      MOCLDY    43  31  62 W14       29.83R
$$
MIZ043>046-050>051-056>058-064>065-071>073-077>080-301100-
SOUTHWEST LOWER MICHIGAN

CITY           SKY/WX    TMP DP  RH WIND       PRES   REMARKS
BATTLE CREEK   CLEAR     37  28  70 W12       29.89R
BENTON HARBOR  PTCLDY    35  31  85 W12       29.94S
BIG RAPIDS     PTCLDY    34  30  87 W9        29.81R
COLDWATER      CLEAR     34  28  79 W9        29.89R
HOLLAND        CLEAR     38  29  70 W9        29.90R
GRAND RAPIDS   PTCLDY    36  28  73 W12       29.87R
KALAMAZOO      CLEAR     37  28  70 W10       29.90R
MARSHALL       CLEAR     34  28  79 W10       29.87R
MUSKEGON       CLEAR     38  30  73 W16       29.88R
$$
MIZ016>042-301100-
NORTHERN LOWER MICHIGAN

CITY           SKY/WX    TMP DP  RH WIND       PRES   REMARKS
ALPENA         CLOUDY    36  30  79 W13G18    29.66R
BEAVER ISLAND  PTCLDY    32  30  94 W14       29.71R
BELLAIRE       PTCLDY    35  30  80 SW5       29.75S
CADILLAC       PTCLDY    33  30  89 W12       29.76S
CHARLEVOIX     PTCLDY    34  32  92 W15       29.76R
FRANKFORT      SUNNY     37  30  73 W8        29.80S
GAYLORD        MOCLDY    32  30  92 W10G20    29.70R
GRAYLING       MOCLDY    34  30  85 W13G22    29.73R
HARBOR SPRINGS CLOUDY    32  31  96 W6        29.71S
HOUGHTON LAKE  MOCLDY    34  29  82 W10       29.74R
MANISTEE       CLEAR     36  28  75 W15G21    29.82S
OSCODA         PTCLDY    36  31  83 W14G20    29.68R
PELLSTON       MOCLDY    34  30  85 W8        29.70R
TRAVERSE CITY  CLEAR     36  29  75 W8        29.77R
$$
MIZ007>008-015-301100-
EASTERN UPPER MICHIGAN

CITY           SKY/WX    TMP DP  RH WIND       PRES   REMARKS
KINROSS        MOCLDY    32  30  93 NW18G28   29.63R
MACKINAC ISLAN CLOUDY    32  31  98 W12       29.67R
NEWBERRY       CLOUDY    33  30  90 W8        29.66R
S. S. MARIE    MOCLDY    32  25  75 NW15G24   29.61R
$$
MIZ004>006-011>014-085-301100-
CENTRAL UPPER MICHIGAN

CITY           SKY/WX    TMP DP  RH WIND       PRES   REMARKS
MANISTIQUE     CLOUDY    32  30  93 W6        29.70R
ESCANABA       PTCLDY    32  28  86 W8        29.74R
MENOMINEE      CLEAR     36  27  69 W9        29.78S
SAWYER-GWINN   CLOUDY    33  31  92 W5        29.70S
$$
MIZ001>003-009>011-084-301100-
WESTERN UPPER MICHIGAN

CITY           SKY/WX    TMP DP  RH WIND       PRES   REMARKS
IRON MOUNTAIN  CLEAR     36  26  67 W12       29.74R
HOUGHTON       CLOUDY    32  28  85 NW14      29.73R
COPPER HARBOR    N/A     32  26  78 N13       29.73R
IRONWOOD       CLEAR     34  27  75 W12       29.80R
$$

ABBREVIATIONS USED IN REMARKS
   TC - TEMPERATURE IN CELSIUS
  WCI - WIND CHILL INDEX
   HX - HEAT INDEX
  VSB - VISIBILITY



USA.gov is the U.S. government's official web portal to all federal, state and local government web resources and services.